Regional Weather Roundup
Issued by NWS

Home | Current Version | Previous Version | Graphics & Text | Print | Product List | Glossary On
Versions: 1 2 3 4 5 6 7 8 9 10 11 12 13 14 15 16 17 18 19 20 21 22 23 24 25 26 27 28 29 30 31 32 33 34 35 36 37 38 39 40 41 42 43 44 45 46 47 48 49 50
000
ASUS43 KMKX 282207
RWRWI

WISCONSIN REGIONAL WEATHER ROUNDUP
NATIONAL WEATHER SERVICE MILWAUKEE/SULLIVAN WI
500 PM CDT THU MAY 28 2015

NOTE: "FAIR" INDICATES FEW OR NO CLOUDS BELOW 12,000 FEET WITH NO
SIGNIFICANT WEATHER AND/OR OBSTRUCTIONS TO VISIBILITY.

WIZ001-002-006>008-014>016-023>028-282300-
NORTHWEST WISCONSIN

CITY           SKY/WX    TMP DP  RH WIND       PRES   REMARKS
SUPERIOR ARPT  CLOUDY    43  42  94 E9        30.04F
ASHLAND        MOSUNNY   61  51  70 N8        30.01F
HAYWARD        MOSUNNY   83  47  28 SW18G28   30.00F HX  81
SIREN          MOSUNNY   81  50  34 S13G23    29.98F HX  80
CUMBERLAND     PTSUNNY   79  54  41 S18G24    30.02F
RICE LAKE      MOSUNNY   83  49  29 S16       30.03F HX  81
CHETEK         MOSUNNY   81  56  42 S14       30.02F HX  81
LADYSMITH      SUNNY     81  51  35 SW14      30.05F HX  80
EAU CLAIRE     NOT AVBL
MENOMONIE      MOSUNNY   82  52  36 S15G22    30.02F HX  81
NEW RICHMOND   MOSUNNY   80  52  38 S15G28    30.00F HX  80
OSCEOLA        MOSUNNY   81  53  37 S16G24    30.01F HX  80
$$

WIZ003>005-009-010-017-018-282300-
NORTH CENTRAL WISCONSIN

CITY           SKY/WX    TMP DP  RH WIND       PRES   REMARKS
MANITOWISH WTR PTSUNNY   77  55  45 S14G20    30.04S
ARBOR VITAE    MOSUNNY   80  55  42 SW8       30.05F HX  80
WOODRUFF       MOSUNNY   80  55  42 SW8       30.05F HX  80
RHINELANDER    LGT RAIN  73  49  42 SW7       30.09R
EAGLE RIVER    MOSUNNY   80  48  32 SW10G16   30.06S
LAND O LAKES   PTSUNNY   80  49  33 SW8       30.06S
PHILLIPS       MOSUNNY   80  53  39 S13G20    30.04S HX  80
TOMAHAWK       PTSUNNY   77  55  46 CALM      30.08F
MEDFORD        MOSUNNY   78  56  46 S16       30.07S
MERRILL        MOSUNNY   79  58  48 SW10      30.07F HX  80
$$

WIZ029-030-035-036-043>047-282300-
CENTRAL WISCONSIN

CITY           SKY/WX    TMP DP  RH WIND       PRES   REMARKS
WAUSAU         MOSUNNY   81  50  33 S15G23    30.05F HX  80
MOSINEE        MOSUNNY   81  54  39 SW15      30.08F HX  80
MARSHFIELD     MOSUNNY   81  55  40 S16G22    30.07F HX  81
STEVENS POINT  MOSUNNY   80  53  39 S15G24    30.08F HX  80
WAUPACA        MOSUNNY   83  57  40 S12       30.09F HX  82
WAUTOMA        NOT AVBL
WISC RAPIDS    MOSUNNY   81  53  37 SW15G22   30.09S HX  80
CAMP DOUGLAS   NOT AVBL
$$

WIZ011>013-019>022-031-037>040-048>050-282300-
NORTHEAST WISCONSIN

CITY           SKY/WX    TMP DP  RH WIND       PRES   REMARKS
ANTIGO         PTSUNNY   75  60  58 S9        30.10R
SHAWANO        PTSUNNY   84  58  41 S9        30.09S HX  83
OCONTO         MOSUNNY   81  63  54 S10       30.09S HX  82
STURGEON BAY   MOSUNNY   72  57  60 S17       30.14S
GREEN BAY      MOSUNNY   81  64  56 S15       30.10S HX  82
MANITOWOC      NOT AVBL
APPLETON       MOSUNNY   81  55  41 S12       30.11S HX  80
CLINTONVILLE   MOSUNNY   82  52  34 S13       30.08S HX  81
OSHKOSH        MOSUNNY   81  59  47 S10G21    30.10F HX  81
$$

WIZ032>034-041-042-053>061-282300-
SOUTHWEST WISCONSIN

CITY           SKY/WX    TMP DP  RH WIND       PRES   REMARKS
LA CROSSE      MOSUNNY   83  53  35 S13G23    30.04F HX  82
SPARTA         MOSUNNY   83  50  32 S17       30.07F HX  81
VIROQUA        MOSUNNY   78  54  42 S14       30.10S
BOSCOBEL       MOSUNNY   82  56  40 VRB6      30.07F HX  82
PRAIRIE DU CHI MOSUNNY   82  50  32 SE10      30.06F HX  81
PLATTEVILLE    MOSUNNY   80  50  34 S10G18    30.10F HX  80
$$

WIZ056-057-062-063-064-067-068-282300-
SOUTH CENTRAL WISCONSIN

CITY           SKY/WX    TMP DP  RH WIND       PRES   REMARKS
REEDSBURG      MOSUNNY   79  56  45 S8        30.10F HX  80
BARABOO/DELLS  MOSUNNY   78  55  44 S12G20    30.11S
LONE ROCK      NOT AVBL
MINERAL POINT  PTSUNNY   79  48  34 S12G17    30.11F
MADISON        PTSUNNY   81  51  35 S12       30.10F HX  80
MIDDLETON      MOSUNNY   82  46  27 S12       30.12S HX  80
WATERTOWN      SUNNY    N/A N/A N/A S8        30.12S
MONROE         MOSUNNY   79  54  41 SE14      30.12F
JANESVILLE     MOSUNNY   82  50  32 SE12      30.11F HX  81
$$

WIZ051-052-058>065-066-070>072-282300-
SOUTHEAST WISCONSIN

CITY           SKY/WX    TMP DP  RH WIND       PRES   REMARKS
MILWAUKEE      PTSUNNY   76  55  48 SE13      30.14F
WAUKESHA       MOSUNNY   79  55  44 SE13      30.15S
MILWAUKEE/TIMM SUNNY     79  50  36 SE9       30.15S
RACINE         SUNNY     75  55  49 S12       30.16F
BURLINGTON     SUNNY     77  54  44 E12       30.14F
KENOSHA        SUNNY     78  56  46 SE12      30.15F
FOND DU LAC    PTSUNNY   82  59  45 S16       30.11S HX  82
SHEBOYGAN      MOSUNNY   75  56  51 S18       30.13F
WEST BEND      MOSUNNY   79  55  44 SE9G18    30.13F
JUNEAU         SUNNY     78  57  48 S9        30.13F
$$

LSZ147-162-282300-
LAKE SUPERIOR

STATION/POSITION TIME  TEMP    WIND        PRES    WAVE
                       AIR SEA DIR/SP/G            HT/PER
                 (UTC) (F)     (DEG/KT/KT) (MB)    (FT/S)
W MID LAKE BUOY  2050   38 37   30/ 16/ 17   N/A     3/ 4
DEVILS ISLAND    2100   40      80/ 11/ 13   N/A
PORT WING        2100   41      20/ 17/ 20   N/A
SAXON HARBOR     2100   45      10/  2/  4   N/A
$$

LMZ867-665-643>646-282300-
LAKE MICHIGAN

STATION/POSITION TIME  TEMP    WIND        PRES    WAVE
                       AIR SEA DIR/SP/G            HT/PER
                 (UTC) (F)     (DEG/KT/KT) (MB)    (FT/S)
CHAMBERS ISLAND  2100          140/  7/ 10   N/A
N MID LAKE BUOY  2050   40 37  150/  6/  8   N/A     1
NORTHPORT PIER   2100   51     150/ 12/ 15   N/A
SISTER BAY       2118   71     180/ 19/ 23   N/A
ALGOMA LAKESHORE 2038          210/ 10/ 12   N/A
KEWAUNEE LAKESHO 2100   50     180/ 13/ 15   N/A
SHEBOYGAN LAKESH 2100   58     180/ 24/ 24   N/A
PORT WASHINGTON  2100   61     200/  6/ 11   N/A
ATWATER BUOY     2100   55     170/  8/ 10   N/A
MILWAUKEE LAKESH 2100   57     140/ 15/ 17   N/A
S MID LAKE BUOY  2050   54 39  150/  2/  2   N/A     0
KENOSHA   LAKESH 2100   61     170/  5/  8   N/A
$$

TC  - TEMPERATURE IN CELSIUS
VSB - VISIBILITY IN STATUTE MILES
WCI - WIND CHILL INDEX
HX  - HEAT INDEX




USA.gov is the U.S. government's official web portal to all federal, state and local government web resources and services.